EHI
0 0 0 0 0 0 0 0 0 0 0 0 0 0 0 0 1 2 3 8 13 12 8 9 11 8 6 6 5 4 5 5 4 3 2 1 0 0 0 0 1 1 0 0 0 0 0 0 0
0 0 0 0 0 0 0 0 0 0 0 0 0 0 0 0 1 3 4 7 11 11 8 9 12 10 7 7 6 5 5 4 4 4 3 1 0 0 0 0 1 1 1 1 1 0 0 0 0
0 0 0 0 0 0 0 0 0 0 0 0 0 0 0 1 3 4 4 6 9 10 8 12 17 14 9 9 7 5 4 4 3 4 3 2 0 0 1 1 1 1 1 2 1 0 0 0 0
0 0 0 0 0 0 0 0 0 0 0 0 0 0 0 2 3 3 3 4 7 9 9 13 19 17 11 10 8 5 2 2 2 1 1 1 0 1 2 3 2 2 2 2 1 0 0 0 0
0 0 0 0 0 0 0 0 0 0 0 0 0 0 0 1 1 2 3 4 7 9 8 10 15 16 13 11 9 5 2 1 1 0 1 1 1 2 2 3 3 3 2 1 0 0 0 0 0
0 0 0 0 0 0 0 0 0 0 0 0 0 0 0 0 1 3 5 7 9 10 8 7 9 11 11 10 8 5 2 1 0 0 1 1 2 3 2 1 2 1 1 0 0 0 0 0 0
0 0 0 0 0 0 0 0 0 0 0 0 0 0 0 1 2 3 5 7 10 12 11 7 5 5 6 6 5 4 3 1 0 0 1 2 3 2 1 0 0 0 0 0 0 0 0 0 0
0 0 0 0 0 0 0 0 0 0 0 0 0 0 1 1 2 3 5 7 10 12 11 7 3 1 1 1 1 2 2 1 0 0 0 1 2 1 0 0 0 0 0 0 0 0 0 0 0
0 0 0 0 0 0 0 0 0 0 0 0 0 0 1 1 1 4 7 8 8 8 7 6 3 1 0 0 0 0 0 0 0 0 0 1 1 1 0 0 0 0 0 0 0 0 0 0 0
0 0 0 0 0 0 0 0 0 0 0 0 0 0 0 0 1 3 5 6 5 4 4 4 3 1 0 0 0 0 0 0 0 0 0 0 0 0 0 0 0 0 0 0 0 0 0 0 0
0 0 0 0 0 0 0 0 0 0 0 0 0 0 0 0 0 1 1 2 2 2 3 3 2 1 0 0 0 0 0 0 0 0 0 0 0 0 0 0 0 0 0 0 0 0 0 0 0
0 0 0 0 0 0 0 0 0 0 0 0 0 0 0 0 0 0 0 0 0 1 2 1 1 0 0 0 0 0 0 0 0 0 0 0 0 0 1 0 0 0 0 0 0 0 0 0 0
0 0 0 0 0 0 0 0 0 0 0 0 0 0 0 0 0 0 0 0 0 1 1 1 1 1 1 0 0 0 0 0 0 1 0 0 0 0 0 0 0 0 0 0 0 0 0 0 0
0 0 0 0 0 0 0 0 0 0 0 0 0 0 0 0 0 0 0 0 0 0 1 1 2 2 1 1 1 0 0 0 0 1 1 0 0 0 0 0 0 0 0 0 0 0 0 0 0
0 0 0 0 0 0 0 0 0 0 0 0 0 0 0 0 0 0 0 0 0 0 0 1 1 1 1 1 1 0 0 0 0 1 1 0 0 0 0 0 0 0 0 0 0 0 0 0 0
0 0 0 0 0 0 0 0 0 0 0 0 0 0 0 0 0 0 0 0 0 0 0 0 0 0 0 1 1 0 0 0 0 1 1 0 0 0 0 0 0 0 0 0 0 0 0 0 0
0 0 0 0 0 0 0 0 0 0 0 0 0 0 0 0 0 0 0 0 0 0 0 0 0 0 0 1 1 1 1 0 0 0 0 0 0 0 0 0 0 0 0 0 0 0 0 0 0
0 0 0 0 0 0 0 0 0 0 0 0 0 0 0 0 0 0 0 0 0 0 0 0 0 0 0 1 1 1 1 1 1 0 0 0 0 0 0 0 0 0 0 0 0 0 0 0 0
0 0 0 0 0 0 0 0 0 0 0 0 0 0 0 0 0 0 0 0 0 0 0 0 0 0 0 0 0 1 1 1 1 0 0 0 0 0 0 0 0 0 0 0 0 0 0 0 0
0 0 0 0 0 0 0 0 0 0 0 0 0 0 0 0 0 0 0 0 0 0 0 0 0 0 0 0 0 0 0 1 1 0 0 0 0 0 0 0 0 0 0 0 0 0 0 0 0
0 0 0 0 0 0 0 0 0 0 0 0 0 0 0 0 0 0 0 0 0 0 0 0 0 0 0 0 0 0 0 0 0 0 0 0 0 0 0 0 0 0 0 0 0 0 0 0 0
0 0 0 0 0 0 0 0 0 0 0 0 0 0 0 0 0 0 0 0 0 0 0 0 0 0 0 0 0 0 0 0 0 0 0 0 0 0 0 0 0 0 0 0 0 0 0 0 0
0 0 0 0 0 0 0 0 0 0 0 0 0 0 0 0 0 0 0 0 0 0 0 0 0 0 0 0 0 0 0 0 0 0 0 0 0 0 0 0 0 0 0 0 0 0 0 0 0
0 0 0 0 0 0 0 0 0 0 0 0 0 0 0 0 0 0 0 0 0 0 0 0 0 0 0 0 0 0 0 0 0 0 0 0 0 0 0 0 0 0 0 0 0 0 0 0 0
0 0 0 0 0 0 0 0 0 0 0 0 0 0 0 0 0 0 0 0 0 0 0 0 0 0 0 0 0 0 0 0 0 0 0 0 0 0 0 0 0 0 0 0 0 0 0 0 0
0 0 0 0 0 0 0 0 0 0 0 0 0 0 0 0 0 0 0 0 0 0 0 0 0 0 0 0 0 0 0 0 0 0 0 0 0 0 0 0 0 0 0 0 0 0 0 0 0
0 0 0 0 0 0 0 0 0 0 0 0 0 0 0 0 0 0 0 0 0 0 0 0 0 0 0 0 0 0 0 0 0 0 0 0 0 0 0 0 0 0 0 0 0 0 0 0 0
0 0 0 0 0 0 0 0 0 0 0 0 0 0 0 0 0 0 0 0 0 0 0 0 0 0 0 0 0 0 0 0 0 0 0 0 0 0 0 0 0 0 0 0 0 0 0 0 0
0 0 0 0 0 0 0 0 0 0 0 0 0 0 0 0 0 0 0 0 0 0 0 0 0 0 0 0 0 0 0 0 0 0 0 0 0 0 0 0 0 0 0 0 0 0 0 0 0
0 0 0 0 0 0 0 0 0 0 0 0 0 0 0 0 0 0 0 0 0 0 0 0 0 0 0 0 0 0 0 0 0 0 0 0 0 0 0 0 0 0 0 0 0 0 0 0 0
Wind_Speed
9 9 6 2 3 4 7 7 5 0 2 4 5 4 4 4 4 6 4 7 10 11 12 11 11 10 10 10 10 10 9 9 9 8 9 9 9 9 8 8 8 8 9 9 9 9 10 10 10
9 5 3 3 4 5 7 8 5 2 3 4 4 3 3 3 7 7 5 7 9 10 10 10 11 10 10 10 10 10 9 9 9 8 9 9 9 8 8 8 8 8 8 9 9 10 10 10 9
9 6 3 3 5 5 4 0 2 5 5 3 2 1 2 3 6 5 6 6 8 9 9 10 12 11 10 10 10 10 9 9 9 8 8 8 8 9 9 9 9 9 9 9 10 10 10 9 9
4 3 4 4 9 8 5 1 3 4 3 2 2 2 3 5 4 6 7 6 7 8 8 10 11 11 10 9 9 9 9 9 8 8 8 8 8 9 9 9 9 9 10 10 10 9 9 8 8
3 3 5 6 9 9 4 1 2 2 3 4 3 2 4 5 8 8 6 6 7 7 8 9 11 10 10 9 9 9 9 9 9 8 8 7 8 9 9 9 9 9 9 9 9 9 8 7 7
3 3 5 7 9 8 4 2 1 3 3 4 4 2 3 5 7 6 5 5 7 7 7 8 10 10 9 9 9 8 9 9 8 8 7 7 7 8 9 8 9 9 9 8 8 8 7 7 6
3 4 6 7 7 5 3 3 2 3 4 3 3 2 4 6 7 6 5 5 6 7 7 7 7 7 8 8 8 8 8 8 8 7 7 7 7 7 8 8 8 8 8 7 7 7 7 6 5
3 3 6 7 7 5 1 3 1 3 3 1 1 2 3 7 7 6 5 4 5 5 6 6 6 6 5 6 7 7 7 7 7 7 6 6 6 7 7 7 7 7 7 6 6 6 6 6 5
3 4 6 6 5 3 3 2 1 1 2 1 1 2 5 10 7 6 4 4 4 5 5 5 5 5 5 5 7 7 7 7 7 6 7 6 4 4 5 6 7 6 6 6 6 6 6 5 4
4 5 7 4 3 2 1 2 2 2 4 3 2 3 6 7 7 7 6 5 5 5 5 4 4 4 4 4 5 4 5 5 5 4 5 3 3 3 5 7 7 7 6 6 6 5 5 4 2
6 7 6 6 4 3 1 2 3 4 5 5 6 6 7 6 6 7 6 6 6 5 5 5 5 4 3 2 3 2 2 3 4 4 4 3 3 3 3 3 4 4 4 3 4 4 2 1 1
8 8 8 6 2 2 3 3 4 6 5 2 4 6 8 8 7 7 7 6 6 6 5 4 5 4 3 3 3 3 2 2 3 3 4 3 2 3 3 3 3 3 2 3 2 2 2 2 2
13 9 8 6 3 4 5 7 6 8 5 3 2 4 7 8 7 6 5 5 6 6 6 5 5 4 4 3 3 3 3 3 3 3 2 3 3 3 3 3 3 3 2 3 2 2 2 2 2
7 8 9 8 6 6 7 8 8 8 5 5 5 6 6 7 7 6 5 5 5 6 6 5 5 5 4 4 3 3 3 3 3 3 3 3 3 3 3 3 3 3 2 2 2 2 2 1 1
6 7 10 9 9 6 5 9 12 10 7 8 7 7 7 7 6 6 6 6 5 5 5 5 5 5 5 4 4 3 3 3 3 3 3 3 3 3 3 3 3 3 2 3 2 2 2 2 2
7 8 9 8 10 7 6 11 8 8 9 9 7 7 7 7 7 6 5 5 5 5 6 6 5 5 5 4 4 3 3 3 2 3 3 3 3 3 3 3 3 3 3 2 2 2 2 2 2
9 9 11 8 10 8 9 9 6 5 8 8 7 7 6 6 7 6 6 5 5 6 6 6 5 5 5 5 4 3 3 3 3 2 3 3 4 4 3 3 3 4 3 2 2 2 2 2 2
8 10 9 9 8 9 10 10 7 5 6 7 6 6 6 6 7 6 6 6 5 5 5 6 6 6 5 4 3 3 3 3 3 3 3 3 3 4 4 3 3 4 3 2 2 3 3 3 3
10 11 12 9 5 8 11 12 10 7 6 6 6 6 6 6 6 6 6 6 6 5 5 6 6 6 5 4 4 4 3 3 3 3 3 3 4 4 4 3 4 3 3 3 3 3 3 3 3
13 13 12 8 5 6 8 12 9 8 8 7 7 6 6 5 5 6 7 7 7 6 6 6 6 6 6 5 4 3 4 3 3 3 3 4 4 4 4 5 4 4 3 4 4 4 3 2 3
15 13 12 8 5 5 6 10 10 8 8 7 7 6 6 6 6 6 7 7 7 7 7 6 6 6 6 5 4 3 3 2 3 3 3 4 4 4 4 5 4 4 4 4 4 5 4 4 2
12 8 9 8 5 5 5 7 7 7 8 8 8 6 6 5 5 5 6 7 7 7 6 6 6 6 5 6 5 6 5 4 4 4 3 4 4 5 5 5 5 5 4 4 5 4 4 5 4
8 5 7 7 6 6 7 7 6 6 7 7 7 6 5 4 4 4 4 5 6 6 6 5 6 6 6 6 6 6 4 3 3 4 5 4 4 4 5 5 5 5 4 5 5 5 4 4 4
5 4 6 6 4 9 11 9 6 5 6 5 5 5 4 3 3 3 3 3 4 5 6 5 6 6 6 6 6 6 6 5 5 5 5 4 3 3 4 5 5 5 4 5 5 5 5 4 4
4 3 3 5 7 8 7 8 6 2 0 2 4 4 4 3 3 3 3 3 3 4 5 5 6 6 6 6 5 6 6 6 6 5 5 5 3 3 5 5 5 5 5 5 5 5 5 5 5
6 7 6 5 5 4 5 7 3 2 2 3 4 4 4 3 3 2 2 3 3 3 4 5 5 5 6 6 5 5 5 4 4 4 4 4 4 4 5 5 5 5 5 5 5 4 4 4 5
4 6 5 4 5 4 5 3 2 2 3 4 4 4 3 3 2 2 2 2 2 2 3 4 5 5 5 6 5 4 4 4 4 4 4 3 3 3 5 5 5 5 6 6 5 4 5 4 4
4 4 3 4 5 6 5 5 3 2 2 2 3 3 2 3 2 2 1 1 1 1 1 2 3 4 4 4 4 4 4 4 4 4 4 4 4 4 5 6 6 5 6 6 6 4 5 5 4
2 3 3 3 4 4 4 1 2 3 3 2 2 2 2 2 2 2 2 2 2 2 1 1 2 3 4 4 3 3 3 3 4 4 4 4 4 5 5 6 6 6 6 6 6 6 6 6 5
2 2 2 2 4 3 2 0 4 6 5 5 5 5 4 4 3 2 2 2 2 2 1 1 1 2 3 3 3 3 2 2 3 3 3 3 4 4 5 5 5 6 6 6 7 7 7 6 6
Wind_Direction
281 256 243 240 237 231 238 243 250 176 16 33 25 17 348 5 33 103 132 101 114 125 130 137 133 136 135 133 132 129 127 123 118 119 122 127 126 124 123 118 113 110 105 101 103 104 99 96 94
280 257 242 234 235 231 236 225 233 149 89 60 38 5 336 61 84 105 112 101 118 126 131 138 136 136 138 137 136 133 131 127 123 121 121 124 126 126 124 122 115 108 104 102 100 99 97 97 95
269 253 238 228 231 234 256 136 167 109 92 106 135 256 308 67 93 102 108 114 116 123 128 133 138 138 137 139 139 137 136 133 127 123 121 123 125 122 118 114 109 104 100 101 99 97 96 98 100
251 228 244 245 246 251 267 23 67 106 111 155 174 164 95 52 69 99 113 121 118 121 123 133 140 141 138 136 140 142 141 138 135 130 128 127 127 124 117 110 106 102 100 100 99 99 98 98 100
244 240 231 235 246 256 271 48 77 165 168 183 201 201 106 82 92 106 122 125 124 123 124 138 140 143 142 139 138 143 143 143 141 139 138 134 129 125 119 114 109 108 106 104 102 100 98 98 99
241 237 237 236 242 237 226 161 187 225 212 181 186 217 116 116 111 117 124 125 124 125 127 137 141 142 142 143 142 145 147 146 145 144 142 137 131 129 123 119 117 116 113 111 107 103 102 102 98
252 248 248 256 259 253 211 126 192 224 229 199 177 188 129 129 117 120 122 120 120 125 131 138 146 146 146 146 145 142 146 147 147 143 139 133 128 126 126 124 124 122 119 115 113 110 106 104 99
269 272 252 251 256 259 149 118 195 246 246 225 181 193 155 138 125 121 122 121 121 130 137 142 148 148 149 149 150 150 149 149 150 147 141 136 132 127 122 122 122 124 124 120 118 118 114 106 100
262 250 245 245 253 264 109 136 181 347 290 252 144 39 99 128 128 127 131 133 141 144 143 146 149 148 151 159 160 157 156 161 158 155 151 145 143 140 132 133 127 126 127 126 126 124 118 109 103
215 234 239 265 296 313 111 183 196 197 226 223 172 110 116 136 147 156 162 164 163 161 157 155 151 147 155 164 154 165 168 166 168 158 160 163 155 150 143 140 138 133 130 132 135 133 129 123 132
211 233 253 274 313 338 306 245 229 224 229 214 194 171 155 167 171 177 178 175 174 168 166 157 149 147 150 145 152 155 156 159 167 165 167 162 153 138 131 136 139 137 141 138 139 138 141 141 135
232 243 256 271 309 304 269 258 244 235 242 246 198 175 168 181 186 188 186 181 174 169 167 158 149 149 155 154 159 153 149 155 159 165 161 156 148 142 142 141 149 148 153 141 143 154 150 147 148
233 245 248 257 250 250 261 257 256 249 245 265 238 182 179 189 194 192 184 178 171 169 167 163 153 153 157 162 165 154 151 153 151 148 148 147 147 153 150 148 146 153 151 149 155 159 152 151 153
243 249 253 248 241 238 243 251 244 243 225 225 212 209 196 194 195 192 189 184 180 173 168 164 162 164 162 164 159 158 151 145 139 136 143 145 145 149 147 146 146 146 146 147 152 150 131 123 105
264 261 255 236 223 218 229 252 231 233 222 222 215 209 206 201 196 194 190 186 185 178 168 165 167 162 164 163 158 159 152 143 139 142 147 140 138 147 145 144 138 140 140 134 125 123 110 102 89
240 241 241 221 206 195 196 248 236 216 211 216 214 211 205 201 197 193 187 183 180 174 170 169 171 162 162 156 159 159 150 146 144 147 151 154 148 144 135 142 146 144 137 134 128 127 111 106 95
221 231 235 229 195 186 201 247 247 218 207 213 211 210 203 197 198 193 184 179 177 171 164 165 163 161 159 156 159 156 149 152 154 151 155 162 157 150 138 143 145 138 136 137 140 125 127 121 107
220 234 243 234 192 193 215 240 252 235 221 216 210 208 203 202 201 191 183 175 170 168 165 164 163 161 157 152 148 152 149 153 156 159 163 166 162 153 141 140 138 135 138 142 141 141 130 128 123
254 252 253 252 218 212 228 240 241 232 222 223 217 211 206 206 196 186 179 169 164 167 166 164 165 164 158 157 160 164 168 165 163 163 163 165 161 158 151 149 148 145 151 159 150 135 132 127 120
251 258 261 265 227 222 247 253 243 231 219 215 216 211 207 206 195 186 174 170 171 176 173 167 168 168 165 166 165 161 156 164 169 162 164 165 163 166 162 157 160 158 157 162 158 142 141 151 147
241 244 254 262 279 264 269 268 239 229 221 218 213 205 204 202 196 186 178 176 170 178 178 177 172 168 164 160 153 146 138 142 158 166 170 171 167 170 167 166 164 167 164 169 170 162 160 166 182
249 243 255 258 254 252 224 269 242 224 218 213 212 203 203 201 191 183 178 176 174 176 171 172 168 164 163 159 163 165 169 175 177 168 167 168 171 174 172 171 170 171 169 168 175 171 168 166 179
257 261 254 249 245 259 238 249 258 212 226 214 203 197 191 182 179 178 172 172 167 162 161 169 164 162 164 166 171 173 171 174 161 158 162 166 171 174 174 174 174 174 175 176 175 172 174 176 178
265 262 257 245 228 244 227 222 260 211 220 217 194 172 163 157 157 154 143 133 146 151 156 163 161 165 168 168 172 178 173 170 167 169 169 171 170 173 177 178 178 176 176 182 183 181 182 183 180
237 206 215 209 209 231 208 212 236 210 212 171 154 146 140 131 129 133 139 141 147 156 156 162 163 166 166 169 177 181 178 175 178 176 176 175 175 179 184 181 180 179 179 182 181 181 186 186 186
238 218 210 213 218 233 203 216 217 145 98 78 102 111 113 110 103 115 136 146 151 157 159 162 166 167 166 172 181 179 178 174 176 177 175 178 180 181 175 177 181 181 180 182 181 182 187 187 190
255 237 248 273 279 263 227 204 211 107 81 75 78 81 85 94 93 100 116 128 145 153 167 168 169 167 170 172 174 177 177 175 173 173 168 171 173 177 172 175 182 183 180 182 183 187 187 183 192
270 283 263 221 230 240 236 218 235 185 125 98 83 78 70 71 73 76 95 114 123 139 151 162 165 167 167 166 171 176 174 176 171 169 171 173 175 177 175 179 184 183 181 182 182 183 187 186 190
281 293 281 255 242 238 237 239 23 107 97 94 81 72 78 64 69 69 58 69 77 90 98 145 157 155 157 160 161 165 171 170 165 168 173 174 174 177 181 184 183 184 184 185 185 186 187 190 190
298 294 306 279 267 259 258 291 19 57 60 54 53 51 58 59 51 58 62 57 58 69 80 86 118 146 156 156 156 163 158 157 158 167 172 169 175 180 180 181 186 188 189 189 190 191 191 192 195